Regional Weather Roundup
Issued by NWS

Home | Current Version | Previous Version | Graphics & Text | Print | Product List | Glossary On
Versions: 1 2 3 4 5 6 7 8 9 10 11 12 13 14 15 16 17 18 19 20 21 22 23 24 25 26 27 28 29 30 31 32 33 34 35 36 37 38 39 40 41 42 43 44 45 46 47 48 49 50
000
ASUS43 KLSX 201007
RWRMO

WEATHER SUMMARY FOR MISSOURI
NATIONAL WEATHER SERVICE SPRINGFIELD MO
500 AM CDT SUN AUG 20 2017

NOTE: "FAIR" INDICATES FEW OR NO CLOUDS BELOW 12,000 FEET WITH NO
       SIGNIFICANT WEATHER AND/OR OBSTRUCTIONS TO VISIBILITY.
       CURRENT SKY AND/OR WEATHER CONDITIONS ARE NOT AVAILABLE FOR
       CHILLICOTHE AND FARMINGTON.

MOZ001>031-035>038-043-044-053-054-201100-
...NORTHERN AND WESTERN MISSOURI...

CITY           SKY/WX    TMP DP  RH WIND       PRES   REMARKS
KANSAS CTY INT TSTM      73  65  75 N18G30    29.97R
KANSAS C DTWN  MOCLDY    83  76  79 SW9       29.91R HX  91
LEE`S SUMMIT   PTCLDY    78  75  90 S10       29.93S
ST JOSEPH      TSTM      68  68 100 N8        30.00R
CHILLICOTHE      N/A     74  70  87 CALM      29.94R
KIRKSVILLE     CLOUDY    67  63  87 SE3       29.96S

$$
MOZ066>068-077>081-088>096-101>105-201100-
...SOUTHWEST MISSOURI...

CITY           SKY/WX    TMP DP  RH WIND       PRES   REMARKS
SPRINGFIELD    CLOUDY    75  74  96 S6        30.00R
JOPLIN         CLOUDY    81  75  82 SW9       29.97F
BRANSON          N/A     73  73 100 CALM      30.03R

$$
MOZ032>034-039>042-045>050-055>058-069>072-201100-
...CENTRAL MISSOURI...

CITY           SKY/WX    TMP DP  RH WIND       PRES   REMARKS
COLUMBIA       CLEAR     71  70  96 SE5       29.97S
JEFFERSON CITY CLEAR     69  69 100 SE3       29.96R
ROLLA          CLEAR     70  69  97 S10       30.00R
SEDALIA        CLOUDY    76  74  93 S7        29.96S
WHITEMAN AFB   CLOUDY    74  74 100 S7        29.93F
WARRENSBURG    CLOUDY    73  70  88 S6        29.93F
OSAGE BEACH    CLEAR     70  69  97 SE3       29.99R

$$
MOZ051-052-059>065-201100-
...EAST CENTRAL MISSOURI...

CITY           SKY/WX    TMP DP  RH WIND       PRES   REMARKS
ST LOUIS INTL  NOT AVBL
SPIRIT OF STL  CLOUDY    68  68 100 CALM      29.97R
ST CHARLES     PTCLDY    70  69  97 CALM      29.96R

$$
MOZ072>076-082>087-097>100-106>115-201100-
...SOUTH CENTRAL AND SOUTHEAST MISSOURI...

CITY           SKY/WX    TMP DP  RH WIND       PRES   REMARKS
CAPE GIRARDEAU FOG       67  66  97 CALM      29.99R VSB 1
FARMINGTON     CLEAR     68  67  96 CALM      30.03R
POPLAR BLUFF   FOG       69  69 100 CALM      29.98R VSB 1/4
WEST PLAINS    CLEAR     74  69  85 CALM      30.04R

$$



USA.gov is the U.S. government's official web portal to all federal, state and local government web resources and services.